IRVINE01 (43693 NORAD) Tracking and Keplerian Element Data

This shows tracking and keplerian element data for the satellite.

Feedback or suggestion? Click here.




ElementValue
Catalog43693
NameIRVINE01
Epoch Orbit1074
Epoch Day20.86731165
Epoch Year2019
RAAN56.3447
Inclination85.034
Eccentricity0.0019649
Argument of Perigee26.6923
Mean Anonmoly333.5325
Mean Motion15.20704877
Decay Rate1.678E-05
L11 43693U 18088D 19020.86731165 .00001678 00000-0 74190-4 0 9996
L22 43693 85.0340 56.3447 0019649 26.6923 333.5325 15.20704877 10740

Live tracking and technical data element details for IRVINE01 (NORAD 43693). IRVINE01 can be tracked NOW for your location showing map with azimuth and elevation plus other details from your city location.

Track the satellite on the map from your city or location and see movement details for azimuth, elevation, latitude, longitude, range, height, and movement on the map or in text.







IsCatalogInMostPopularTable: catalog: 43693, numindb: 51
Update: records affected: 1



GetName: 43693 IRVINE01

Hit Count: updated at: Wed, 23 Jan 2019 03:31:51 GMT